TimeCST,TemperatureF,Dew PointF,Humidity,Sea Level PressureIn,VisibilityMPH,Wind Direction,Wind SpeedMPH,Gust SpeedMPH,PrecipitationIn,Events,Conditions,WindDirDegrees,DateUTC
12:15 AM,70.2,60.3,71,30.12,7.0,ESE,8.1,-,N/A,,Overcast,110,2012-12-14 06:15:00
12:35 AM,70.2,60.4,71,30.12,10.0,ESE,9.2,-,N/A,,Overcast,110,2012-12-14 06:35:00
12:55 AM,70.2,60.6,72,30.11,7.0,ESE,9.2,-,N/A,,Overcast,110,2012-12-14 06:55:00
1:15 AM,70.3,60.8,72,30.10,7.0,ESE,10.4,-,N/A,,Overcast,110,2012-12-14 07:15:00
1:35 AM,70.3,60.8,72,30.10,7.0,ESE,11.5,-,N/A,,Overcast,120,2012-12-14 07:35:00
1:55 AM,70.2,61.0,73,30.09,7.0,ESE,9.2,-,N/A,,Overcast,120,2012-12-14 07:55:00
2:15 AM,70.0,61.0,73,30.09,7.0,ESE,8.1,-,N/A,,Overcast,120,2012-12-14 08:15:00
2:55 AM,70.0,61.2,73,30.07,7.0,ESE,8.1,-,N/A,,Scattered Clouds,120,2012-12-14 08:55:00
3:15 AM,69.8,61.5,75,30.08,10.0,SE,8.1,-,N/A,,Scattered Clouds,130,2012-12-14 09:15:00
3:55 AM,70.0,61.7,75,30.07,7.0,ESE,8.1,-,N/A,,Overcast,120,2012-12-14 09:55:00
4:15 AM,70.0,61.7,75,30.07,7.0,ESE,6.9,-,N/A,,Overcast,120,2012-12-14 10:15:00
4:35 AM,70.0,61.7,75,30.07,7.0,ESE,6.9,-,N/A,,Overcast,120,2012-12-14 10:35:00
4:55 AM,69.8,61.7,75,30.06,7.0,ESE,6.9,-,N/A,,Overcast,110,2012-12-14 10:55:00
5:15 AM,69.4,61.7,76,30.06,7.0,ESE,5.8,-,N/A,,Mostly Cloudy,110,2012-12-14 11:15:00
5:35 AM,69.3,61.9,77,30.06,7.0,ESE,6.9,-,N/A,,Scattered Clouds,120,2012-12-14 11:35:00
5:55 AM,69.1,61.9,78,30.06,7.0,ESE,6.9,-,N/A,,Clear,120,2012-12-14 11:55:00
6:15 AM,68.9,62.1,79,30.06,7.0,ESE,5.8,-,N/A,,Mostly Cloudy,120,2012-12-14 12:15:00
6:35 AM,69.3,62.2,78,30.08,7.0,East,4.6,-,N/A,,Overcast,80,2012-12-14 12:35:00
6:55 AM,69.3,62.6,79,30.09,7.0,ESE,4.6,-,N/A,,Overcast,120,2012-12-14 12:55:00
7:15 AM,68.9,62.6,80,30.09,7.0,SE,3.5,-,N/A,,Mostly Cloudy,130,2012-12-14 13:15:00
7:35 AM,69.1,62.6,80,30.09,7.0,East,3.5,-,N/A,,Overcast,100,2012-12-14 13:35:00
7:55 AM,69.3,62.8,80,30.09,7.0,East,4.6,-,N/A,,Overcast,90,2012-12-14 13:55:00
8:15 AM,70.0,63.1,79,30.10,5.0,ESE,4.6,-,N/A,Rain,Light Rain,110,2012-12-14 14:15:00
8:55 AM,72.9,63.5,72,30.09,5.0,SE,10.4,-,N/A,,Haze,130,2012-12-14 14:55:00
9:15 AM,73.8,63.9,71,30.09,7.0,SE,15.0,-,N/A,,Clear,130,2012-12-14 15:15:00
9:35 AM,74.7,64.4,70,30.09,7.0,SE,18.4,-,N/A,,Scattered Clouds,140,2012-12-14 15:35:00
9:55 AM,75.4,64.6,69,30.10,4.0,SSE,16.1,20.7,N/A,,Haze,150,2012-12-14 15:55:00
10:15 AM,76.3,64.6,67,30.10,5.0,SSE,11.5,17.3,N/A,,Haze,150,2012-12-14 16:15:00
10:55 AM,79.7,64.9,61,30.07,5.0,SSE,16.1,20.7,N/A,,Haze,150,2012-12-14 16:55:00
11:15 AM,78.8,64.6,62,30.07,7.0,SSE,13.8,24.2,N/A,,Overcast,150,2012-12-14 17:15:00
11:35 AM,79.0,64.9,62,30.06,7.0,SE,17.3,23.0,N/A,,Overcast,140,2012-12-14 17:35:00
11:55 AM,79.2,64.4,60,30.05,7.0,SSE,16.1,-,N/A,,Overcast,150,2012-12-14 17:55:00
12:15 PM,79.2,64.6,61,30.03,5.0,SE,15.0,19.6,N/A,,Haze,140,2012-12-14 18:15:00
12:35 PM,78.8,64.6,62,30.03,7.0,SSE,17.3,23.0,N/A,,Overcast,150,2012-12-14 18:35:00
12:55 PM,79.0,64.8,62,30.01,5.0,SSE,18.4,25.3,N/A,,Haze,150,2012-12-14 18:55:00
1:15 PM,79.3,64.8,61,30.00,5.0,SSE,16.1,24.2,N/A,,Haze,150,2012-12-14 19:15:00
1:35 PM,79.7,65.5,62,29.99,7.0,SSE,15.0,18.4,N/A,,Overcast,160,2012-12-14 19:35:00
1:55 PM,79.2,66.2,64,29.97,7.0,SSE,15.0,18.4,N/A,,Overcast,150,2012-12-14 19:55:00
2:15 PM,80.6,65.8,61,29.95,7.0,SSE,18.4,21.9,N/A,,Overcast,150,2012-12-14 20:15:00
2:35 PM,80.6,66.0,61,29.94,7.0,SE,17.3,26.5,N/A,,Overcast,140,2012-12-14 20:35:00
2:55 PM,79.9,66.0,62,29.93,7.0,SSE,13.8,-,N/A,,Mostly Cloudy,150,2012-12-14 20:55:00
3:15 PM,79.7,66.2,63,29.91,5.0,SSE,19.6,27.6,N/A,,Haze,150,2012-12-14 21:15:00
3:35 PM,79.3,66.2,64,29.91,7.0,SSE,18.4,25.3,N/A,,Overcast,160,2012-12-14 21:35:00
3:55 PM,79.2,66.2,64,29.90,7.0,SSE,19.6,24.2,N/A,,Overcast,150,2012-12-14 21:55:00
4:15 PM,79.2,66.4,65,29.90,7.0,SE,16.1,25.3,N/A,,Overcast,140,2012-12-14 22:15:00
4:35 PM,78.4,66.4,66,29.90,7.0,SSE,17.3,23.0,N/A,,Overcast,150,2012-12-14 22:35:00
4:55 PM,78.1,66.6,68,29.91,7.0,SSE,9.2,17.3,N/A,,Scattered Clouds,160,2012-12-14 22:55:00
5:15 PM,77.9,66.7,68,29.89,7.0,SSE,16.1,23.0,N/A,,Clear,150,2012-12-14 23:15:00
5:35 PM,77.4,67.1,71,29.89,7.0,SSE,15.0,24.2,N/A,,Scattered Clouds,150,2012-12-14 23:35:00
5:55 PM,77.0,67.1,71,29.90,7.0,SSE,12.7,18.4,N/A,,Mostly Cloudy,150,2012-12-14 23:55:00
6:35 PM,76.5,67.5,74,29.90,7.0,SSE,13.8,19.6,N/A,,Mostly Cloudy,150,2012-12-15 00:35:00
6:55 PM,76.3,67.5,74,29.90,7.0,SSE,12.7,21.9,N/A,,Scattered Clouds,150,2012-12-15 00:55:00
7:15 PM,76.3,67.8,75,29.92,7.0,SSE,13.8,18.4,N/A,,Mostly Cloudy,150,2012-12-15 01:15:00
7:35 PM,76.1,68.0,76,29.93,7.0,SSE,10.4,19.6,N/A,,Overcast,150,2012-12-15 01:35:00
7:55 PM,76.3,68.0,75,29.91,7.0,SSE,13.8,19.6,N/A,,Overcast,150,2012-12-15 01:55:00
8:15 PM,75.9,68.0,76,29.92,7.0,SSE,13.8,18.4,N/A,,Overcast,150,2012-12-15 02:15:00
8:35 PM,75.7,68.0,77,29.93,7.0,SSE,9.2,-,N/A,,Overcast,160,2012-12-15 02:35:00
8:55 PM,75.6,68.0,77,29.94,7.0,SSE,9.2,16.1,N/A,,Overcast,150,2012-12-15 02:55:00
9:15 PM,75.6,68.0,77,29.93,7.0,SSE,9.2,-,N/A,,Overcast,150,2012-12-15 03:15:00
9:35 PM,75.4,68.0,78,29.94,7.0,SSE,12.7,16.1,N/A,,Overcast,150,2012-12-15 03:35:00
9:55 PM,75.6,68.0,77,29.93,7.0,SSE,10.4,-,N/A,,Overcast,150,2012-12-15 03:55:00
10:15 PM,75.4,68.0,78,29.91,7.0,SSE,11.5,-,N/A,,Mostly Cloudy,150,2012-12-15 04:15:00
10:35 PM,75.2,68.2,79,29.91,7.0,SSE,10.4,16.1,N/A,,Scattered Clouds,150,2012-12-15 04:35:00
10:55 PM,75.2,68.4,79,29.91,7.0,SSE,8.1,-,N/A,,Scattered Clouds,150,2012-12-15 04:55:00
11:15 PM,74.8,68.5,81,29.92,7.0,SSE,9.2,-,N/A,,Scattered Clouds,150,2012-12-15 05:15:00
11:35 PM,74.8,68.9,82,29.91,7.0,SSE,11.5,-,N/A,,Clear,150,2012-12-15 05:35:00
11:55 PM,74.8,68.9,82,29.92,7.0,SSE,9.2,-,N/A,,Clear,160,2012-12-15 05:55:00